[[{"header":{"parameterUnit":"m.s-1","parameterCategory":1,"la1":30.2991,"la2":30.254,"lo1":-89.0895,"lo2":-89.0444,"dy":0.0017,"dx":0.0017,"nx":28,"ny":28,"refTime":"2025-06-01T03:00:00:Z","depth":0,"parameterNumber":2,"parameterNumberName":"U-component_of_WINDS"},"data":[0,0,0,0,0,0,0,0,0,0,0,0,0,0,0,0,0,0,0,0,0,0,0,0,0,0,0,0,0,0,0,0,0,0,0,0,0,0,0,0,0,0,0,0,0,0,0,0,0,0,0,0,0,0,0,0,0,0,-0.0732,-0.0732,0,-0.0762,-0.0762,-0.0762,-0.0806,-0.0806,-0.0807,-0.0808,-0.0837,-0.0838,-0.0838,0,0,0,0,0,0,0,0,0,0,0,0,0,-0.0711,-0.0712,-0.0732,-0.0733,-0.0733,-0.0762,-0.0762,-0.0763,-0.0805,-0.0806,-0.0807,-0.0808,-0.0837,-0.0837,-0.0838,0,0,0,0,0,0,0,0,0,0,0,0,0,-0.0729,-0.0712,-0.0732,-0.0758,-0.076,-0.0762,-0.0762,-0.0763,-0.0805,-0.0806,-0.0808,-0.0809,-0.0837,-0.0837,-0.0838,-0.0816,0,0,-0.0838,-0.0838,0,0,0,0,0,0,0,0,-0.0728,-0.0729,-0.0754,-0.0756,-0.0759,-0.0781,-0.0766,-0.078,-0.0805,-0.0788,-0.0808,-0.0809,-0.0818,-0.082,-0.0823,-0.0817,-0.0819,-0.0838,-0.0838,-0.0838,-0.0838,0,0,0,0,0,0,0,-0.0726,-0.0728,-0.0744,-0.0754,-0.0757,-0.0767,-0.0771,-0.0769,-0.0796,-0.079,-0.0793,-0.0796,-0.0819,-0.0822,-0.0824,-0.0819,-0.0838,-0.0838,-0.0838,-0.0838,-0.0796,-0.0795,0,0,0,0,0,0,-0.0721,-0.0727,-0.0743,-0.0745,-0.0746,-0.0767,-0.0771,-0.0773,-0.0796,-0.0801,-0.0795,-0.0798,-0.0822,-0.0823,-0.0825,-0.08,-0.0838,-0.0838,-0.0838,-0.0797,-0.0796,-0.0795,0,0,0,0,0,0,-0.0721,-0.0722,-0.0742,-0.0737,-0.074,-0.0766,-0.0768,-0.0773,-0.0776,-0.08,-0.0805,-0.0793,-0.0823,-0.0825,-0.0818,-0.0802,-0.0838,-0.0838,-0.0799,-0.0797,-0.0795,-0.0751,0,0,0,0,0,0,-0.072,-0.0722,-0.0714,-0.0736,-0.074,-0.0734,-0.0767,-0.0773,-0.0776,-0.078,-0.08,-0.0804,-0.0824,-0.0817,-0.0818,-0.0803,-0.0839,-0.08,-0.0798,-0.0796,-0.0754,-0.0748,-0.0743,0,0,0,0,0,-0.0719,-0.0701,-0.0714,-0.0715,-0.0731,-0.0733,-0.0735,-0.0758,-0.0775,-0.0767,-0.0782,-0.0804,-0.0804,-0.0816,-0.0817,-0.0802,-0.0801,-0.0799,-0.0796,-0.0757,-0.0749,-0.0743,0,0,0,0,0,0,-0.0676,-0.0704,-0.0719,-0.0707,-0.0717,-0.0741,-0.0732,-0.075,-0.0756,-0.0759,-0.0787,-0.0791,-0.0781,-0.0791,-0.0804,-0.0782,-0.0806,-0.0803,-0.0775,-0.0769,-0.0763,-0.0761,-0.0839,0,0,0,0,0,-0.0666,-0.0665,-0.069,-0.0677,-0.0681,-0.0705,-0.0707,-0.0724,-0.0736,-0.074,-0.0755,-0.0766,-0.0768,-0.0769,-0.0772,-0.0756,-0.076,-0.0746,-0.074,-0.0735,-0.0733,-0.0724,-0.0717,-0.0786,-0.0786,-0.0786,0,0,-0.0643,-0.0659,-0.0657,-0.0669,-0.0679,-0.0677,-0.0709,-0.0706,-0.0705,-0.074,-0.0734,-0.0745,-0.0759,-0.0746,-0.0742,-0.0754,-0.0715,-0.0732,-0.0728,-0.0728,-0.072,-0.0714,-0.0708,-0.0784,-0.0784,-0.0785,0,0,-0.0602,-0.0614,-0.0604,-0.0613,-0.0628,-0.0644,-0.0641,-0.0662,-0.067,-0.0665,-0.0691,-0.069,-0.0693,-0.0701,-0.0706,-0.0666,-0.0686,-0.0667,-0.0637,-0.0628,-0.0623,-0.0618,-0.0603,-0.0598,-0.0664,-0.0664,-0.0664,0,-0.0572,-0.0572,-0.0597,-0.0592,-0.0596,-0.0628,-0.0617,-0.0625,-0.064,-0.0642,-0.0656,-0.066,-0.0672,-0.0661,-0.0652,-0.0654,-0.0652,-0.0665,-0.0622,-0.0617,-0.0613,-0.0599,-0.0594,-0.0661,-0.0662,-0.0662,-0.0662,0,-0.0534,-0.0533,-0.0524,-0.0537,-0.054,-0.0533,-0.0556,-0.0556,-0.0572,-0.0586,-0.058,-0.0594,-0.0601,-0.06,-0.0616,-0.0591,-0.0599,-0.0617,-0.0641,-0.0604,-0.0591,-0.0586,-0.0658,-0.0659,-0.066,-0.066,0,0,-0.0467,-0.0494,-0.049,-0.0496,-0.0514,-0.0514,-0.0507,-0.0514,-0.0513,-0.0522,-0.0517,-0.0519,-0.0535,-0.054,-0.0557,-0.0549,-0.0516,-0.0568,-0.0569,-0.0558,-0.0489,-0.0475,-0.0468,-0.0529,-0.0528,-0.0527,-0.0488,0,-0.0429,-0.042,-0.0442,-0.0428,-0.0426,-0.0455,-0.045,-0.046,-0.0473,-0.0473,-0.0487,-0.0488,-0.051,-0.0513,-0.0507,-0.0521,-0.0502,-0.0525,-0.0524,-0.0523,-0.0519,-0.0462,-0.0448,-0.041,-0.0483,-0.0482,-0.0482,0,-0.0384,-0.039,-0.0375,-0.0393,-0.0394,-0.0388,-0.0395,-0.0396,-0.0407,-0.0417,-0.0422,-0.0442,-0.0436,-0.046,-0.0452,-0.0467,-0.0468,-0.0474,-0.0474,-0.0474,-0.05,-0.0461,-0.0398,-0.0392,-0.0474,-0.0475,-0.0475,0,-0.0335,-0.034,-0.0332,-0.0336,-0.0357,-0.0353,-0.0361,-0.0374,-0.0376,-0.0382,-0.0384,-0.0389,-0.0391,-0.0395,-0.0415,-0.043,-0.0404,-0.043,-0.0412,-0.0411,-0.0405,-0.0405,-0.0341,-0.0406,-0.0406,-0.0406,-0.0406,0,-0.029,-0.028,-0.031,-0.0305,-0.0294,-0.0319,-0.0307,-0.0319,-0.0329,-0.0326,-0.0352,-0.0348,-0.0376,-0.0375,-0.039,-0.0381,-0.0382,-0.039,-0.0394,-0.0387,-0.0386,-0.0388,-0.0391,-0.0405,-0.0405,-0.0405,-0.0405,0,-0.0235,-0.0255,-0.0247,-0.0268,-0.0272,-0.0263,-0.028,-0.0276,-0.029,-0.0286,-0.0286,-0.0308,-0.0309,-0.0329,-0.0334,-0.0344,-0.0328,-0.0338,-0.0324,-0.0327,-0.0307,-0.0309,-0.0242,-0.0234,-0.0304,-0.0304,-0.0303,0,-0.0204,-0.0197,-0.0216,-0.0216,-0.0223,-0.0223,-0.0225,-0.0249,-0.025,-0.0262,-0.0256,-0.0258,-0.0262,-0.0261,-0.0277,-0.028,-0.0289,-0.0266,-0.029,-0.0283,-0.0288,-0.0288,-0.0287,-0.0261,-0.026,-0.0259,-0.0258,0,-0.0149,-0.0159,-0.0161,-0.0166,-0.0168,-0.0173,-0.018,-0.0179,-0.0205,-0.0204,-0.0205,-0.0208,-0.0212,-0.0214,-0.022,-0.0228,-0.0247,-0.0251,-0.0246,-0.0239,-0.0232,-0.0235,-0.031,-0.0252,-0.0253,-0.0253,-0.0253,-0.0254,-0.0105,-0.0099,-0.0111,-0.0113,-0.012,-0.0126,-0.0123,-0.0136,-0.0137,-0.0143,-0.0157,-0.0155,-0.0165,-0.0176,-0.0182,-0.0181,-0.0192,-0.0187,-0.0185,-0.0183,-0.0179,-0.0232,-0.0182,-0.0182,-0.0182,-0.0182,-0.0183,0,-0.0049,-0.0059,-0.006,-0.0068,-0.0069,-0.0087,-0.0095,-0.0095,-0.0093,-0.0101,-0.0104,-0.0104,-0.0105,-0.0121,-0.0125,-0.012,-0.0129,-0.012,-0.0121,-0.0122,-0.0169,-0.0172,-0.0113,-0.0113,-0.0113,-0.0113,-0.0113,-0.0113,-0.0021,-0.0012,-0.0023,-0.0018,-0.0028,-0.0026,-0.0029,-0.0034,-0.0041,-0.004,-0.0042,-0.0052,-0.0063,-0.0067,-0.0069,-0.0074,-0.0073,-0.0062,-0.0069,-0.0112,-0.0119,-0.0125,-0.0128,-0.0061,-0.0061,-0.0022,-0.0022,-0.0022]},{"header":{"parameterUnit":"m.s-1","parameterCategory":1,"la1":30.2991,"la2":30.254,"lo1":-89.0895,"lo2":-89.0444,"dy":0.0017,"dx":0.0017,"nx":28,"ny":28,"refTime":"2025-06-01T03:00:00:Z","depth":0,"parameterNumber":3,"parameterNumberName":"V-component_of_WINDS"},"data":[0,0,0,0,0,0,0,0,0,0,0,0,0,0,0,0,0,0,0,0,0,0,0,0,0,0,0,0,0,0,0,0,0,0,0,0,0,0,0,0,0,0,0,0,0,0,0,0,0,0,0,0,0,0,0,0,0,0,-1.5175,-1.5175,0,-1.5168,-1.5168,-1.5168,-1.5139,-1.5138,-1.5137,-1.5137,-1.513,-1.513,-1.5131,0,0,0,0,0,0,0,0,0,0,0,0,0,-1.5165,-1.5165,-1.5175,-1.5175,-1.5175,-1.5168,-1.5168,-1.5168,-1.5139,-1.5138,-1.5137,-1.5136,-1.513,-1.513,-1.5131,0,0,0,0,0,0,0,0,0,0,0,0,0,-1.5165,-1.5165,-1.5175,-1.516,-1.5158,-1.5168,-1.5168,-1.5168,-1.5139,-1.5138,-1.5137,-1.5136,-1.5129,-1.513,-1.5131,-1.5155,0,0,-1.5133,-1.5133,0,0,0,0,0,0,0,0,-1.5165,-1.5165,-1.5162,-1.5161,-1.5159,-1.5153,-1.5162,-1.5164,-1.5139,-1.5146,-1.5137,-1.5136,-1.5138,-1.5138,-1.5139,-1.5155,-1.5154,-1.5133,-1.5133,-1.5133,-1.5134,0,0,0,0,0,0,0,-1.5165,-1.5165,-1.5172,-1.5162,-1.516,-1.5153,-1.5152,-1.5162,-1.5148,-1.5146,-1.5143,-1.5143,-1.5137,-1.5139,-1.5139,-1.5154,-1.5133,-1.5133,-1.5134,-1.5134,-1.5191,-1.5192,0,0,0,0,0,0,-1.5167,-1.5165,-1.5173,-1.5172,-1.5159,-1.5154,-1.5153,-1.5156,-1.5148,-1.5146,-1.5144,-1.5142,-1.5138,-1.5138,-1.5138,-1.5167,-1.5133,-1.5134,-1.5134,-1.519,-1.5191,-1.5192,0,0,0,0,0,0,-1.5167,-1.5168,-1.5173,-1.5168,-1.5168,-1.5156,-1.5159,-1.5157,-1.5158,-1.5147,-1.5144,-1.5148,-1.5137,-1.5137,-1.5151,-1.5166,-1.5134,-1.5135,-1.5189,-1.519,-1.5192,-1.5224,0,0,0,0,0,0,-1.5167,-1.5168,-1.5177,-1.5169,-1.5169,-1.5186,-1.516,-1.5157,-1.5159,-1.5156,-1.5149,-1.5147,-1.5136,-1.5151,-1.5152,-1.5167,-1.5135,-1.5187,-1.5189,-1.5191,-1.5222,-1.5227,-1.5231,0,0,0,0,0,-1.5166,-1.5186,-1.5177,-1.5178,-1.5179,-1.5187,-1.5187,-1.5174,-1.516,-1.5169,-1.5162,-1.5148,-1.5165,-1.5152,-1.5154,-1.5169,-1.5186,-1.5189,-1.5191,-1.522,-1.5226,-1.5231,0,0,0,0,0,0,-1.5196,-1.5184,-1.5175,-1.5192,-1.5191,-1.5182,-1.5192,-1.518,-1.5182,-1.518,-1.5163,-1.5162,-1.5179,-1.5175,-1.5162,-1.5193,-1.5173,-1.5176,-1.5194,-1.52,-1.5205,-1.5205,-1.5136,0,0,0,0,0,-1.5204,-1.5211,-1.5201,-1.5217,-1.5217,-1.5205,-1.5208,-1.5198,-1.5196,-1.5195,-1.5189,-1.5187,-1.5192,-1.5196,-1.52,-1.5221,-1.522,-1.5233,-1.5237,-1.5241,-1.5244,-1.5256,-1.5262,-1.5201,-1.5201,-1.5201,0,0,-1.5222,-1.5216,-1.5221,-1.5223,-1.522,-1.5228,-1.5205,-1.5213,-1.5219,-1.5196,-1.5209,-1.5205,-1.5202,-1.522,-1.5228,-1.5218,-1.5261,-1.5245,-1.5248,-1.5248,-1.5259,-1.5265,-1.527,-1.5202,-1.5202,-1.5202,0,0,-1.5257,-1.5254,-1.5268,-1.5266,-1.5263,-1.5255,-1.5259,-1.5252,-1.5248,-1.5261,-1.5244,-1.5251,-1.526,-1.5259,-1.526,-1.5298,-1.5285,-1.53,-1.5324,-1.5336,-1.5341,-1.5345,-1.5359,-1.5364,-1.5302,-1.5302,-1.5302,0,-1.528,-1.529,-1.5276,-1.5287,-1.5288,-1.5268,-1.5282,-1.5282,-1.528,-1.5282,-1.5271,-1.5282,-1.5279,-1.5297,-1.5307,-1.5308,-1.5312,-1.53,-1.5341,-1.5345,-1.5349,-1.5362,-1.5367,-1.5304,-1.5304,-1.5304,-1.5304,0,-1.5318,-1.5326,-1.5337,-1.5337,-1.534,-1.5352,-1.534,-1.5345,-1.5336,-1.5329,-1.5343,-1.5339,-1.5342,-1.5346,-1.5337,-1.5363,-1.5357,-1.5344,-1.5324,-1.5357,-1.5369,-1.5374,-1.5307,-1.5306,-1.5306,-1.5305,0,0,-1.5371,-1.5363,-1.5368,-1.5368,-1.5364,-1.537,-1.5382,-1.5385,-1.539,-1.539,-1.54,-1.5409,-1.5397,-1.5398,-1.5388,-1.5399,-1.543,-1.5384,-1.5384,-1.5393,-1.546,-1.547,-1.5476,-1.5422,-1.5422,-1.5423,-1.5461,0,-1.5405,-1.5425,-1.5413,-1.5435,-1.5442,-1.5424,-1.5435,-1.5434,-1.5429,-1.5435,-1.5429,-1.5436,-1.5419,-1.542,-1.543,-1.5424,-1.5443,-1.5421,-1.5431,-1.5432,-1.5432,-1.5483,-1.5493,-1.5528,-1.5465,-1.5466,-1.5467,0,-1.5447,-1.545,-1.5472,-1.5468,-1.5471,-1.548,-1.5483,-1.5489,-1.5488,-1.5484,-1.5486,-1.5474,-1.5487,-1.5467,-1.5484,-1.547,-1.5473,-1.5471,-1.5472,-1.5473,-1.5451,-1.5485,-1.5539,-1.5545,-1.5474,-1.5473,-1.5473,0,-1.5484,-1.5493,-1.5508,-1.5509,-1.5504,-1.5511,-1.551,-1.5508,-1.5511,-1.5514,-1.5516,-1.552,-1.5523,-1.5527,-1.5517,-1.5504,-1.5536,-1.5515,-1.5533,-1.5533,-1.554,-1.554,-1.5597,-1.5542,-1.5542,-1.5542,-1.5542,0,-1.5524,-1.5538,-1.5525,-1.5534,-1.555,-1.5537,-1.5554,-1.555,-1.5549,-1.5558,-1.5543,-1.5551,-1.5538,-1.5545,-1.5538,-1.5554,-1.5555,-1.5552,-1.555,-1.5553,-1.5554,-1.5555,-1.5552,-1.5544,-1.5543,-1.5543,-1.5543,0,-1.5567,-1.5559,-1.5574,-1.5569,-1.5568,-1.558,-1.5576,-1.5584,-1.5579,-1.559,-1.5592,-1.5583,-1.5591,-1.5582,-1.5589,-1.5585,-1.5606,-1.56,-1.5606,-1.5605,-1.5623,-1.5622,-1.5683,-1.5691,-1.5631,-1.5632,-1.5632,0,-1.5593,-1.5604,-1.56,-1.5605,-1.5604,-1.5612,-1.5616,-1.5604,-1.5609,-1.561,-1.5618,-1.5625,-1.563,-1.5644,-1.5639,-1.5645,-1.5639,-1.566,-1.564,-1.5644,-1.564,-1.564,-1.5641,-1.5664,-1.5665,-1.5666,-1.5666,0,-1.564,-1.5635,-1.5641,-1.5646,-1.5651,-1.5654,-1.5656,-1.5661,-1.5649,-1.5655,-1.5663,-1.5667,-1.5675,-1.5683,-1.5687,-1.5686,-1.5675,-1.5673,-1.5677,-1.5681,-1.5684,-1.5683,-1.5618,-1.5671,-1.5671,-1.567,-1.567,-1.567,-1.5675,-1.5684,-1.5684,-1.5691,-1.5691,-1.5694,-1.5702,-1.5698,-1.5705,-1.5711,-1.5704,-1.5714,-1.5715,-1.572,-1.572,-1.5729,-1.572,-1.5726,-1.5728,-1.573,-1.5733,-1.5683,-1.573,-1.5729,-1.5729,-1.5729,-1.5729,0,-1.5721,-1.572,-1.5727,-1.5731,-1.5737,-1.5726,-1.5728,-1.5734,-1.5744,-1.5745,-1.575,-1.5761,-1.5768,-1.5764,-1.5771,-1.5779,-1.5774,-1.5781,-1.578,-1.5781,-1.574,-1.5736,-1.5785,-1.5785,-1.5785,-1.5785,-1.5785,-1.5785,-1.5746,-1.5761,-1.5757,-1.5773,-1.5772,-1.5783,-1.5785,-1.5788,-1.5789,-1.5801,-1.5808,-1.5805,-1.5805,-1.5811,-1.5818,-1.5817,-1.582,-1.583,-1.5827,-1.5789,-1.5783,-1.5778,-1.5774,-1.583,-1.583,-1.5866,-1.5867,-1.5867]}]]